{"data":{"norad_id":62633,"epoch":"2026-09-19T12:54:55.815264Z","epoch_age_seconds":97487,"freshness":"FRESH","line1":"1 62633U 25009AA  26262.53814601  .00006711  00000+0  22482-3 0  9997","line2":"2 62633  97.3959 344.2057 0002432 353.1699   6.9509 15.31260143 93340","mean_motion":15.31260143,"eccentricity":0.0002432,"inclination_deg":97.3959,"raan_deg":344.2057,"arg_perigee_deg":353.1699,"mean_anomaly_deg":6.9509,"bstar":0.00022482,"rev_number":9334,"period_min":94.040193404289,"perigee_km":470.38553406926,"apogee_km":473.71746575562,"semimajor_km":6850.1884999124,"source":"CELESTRAK","updated_at":"2026-09-20T09:00:34.718537Z"}}